| time (UTC) | temp F | wind direction | speed knots | gust knots | rain 1hr in | rain 24hr in | rain mn in | humidity % | barometer mb |
| 20260505041552 | 66 | 215 | 7.0 | 9.6 | 0.00 | 0.02 | 0.00 | 65 | 1008.0 |
| 20260505041041 | 66 | 210 | 7.0 | 12.2 | 0.00 | 0.02 | 0.00 | 65 | 1008.0 |
| 20260505040541 | 66 | 202 | 7.0 | 12.2 | 0.00 | 0.02 | 0.00 | 65 | 1007.9 |
| 20260505040051 | 66 | 200 | 7.0 | 12.2 | 0.00 | 0.02 | 0.00 | 65 | 1007.9 |
| 20260505035538 | 66 | 205 | 7.8 | 12.2 | 0.00 | 0.02 | 0.02 | 65 | 1007.8 |
| 20260505035039 | 66 | 204 | 7.0 | 12.2 | 0.00 | 0.02 | 0.02 | 65 | 1007.8 |
| 20260505034538 | 66 | 202 | 7.8 | 11.3 | 0.00 | 0.02 | 0.02 | 64 | 1007.7 |
| 20260505034038 | 66 | 216 | 7.0 | 13.9 | 0.00 | 0.02 | 0.02 | 64 | 1007.8 |
| 20260505033538 | 67 | 221 | 7.8 | 13.9 | 0.00 | 0.02 | 0.02 | 64 | 1007.7 |
| 20260505033044 | 67 | 221 | 7.0 | 12.2 | 0.00 | 0.02 | 0.02 | 64 | 1007.8 |
| 20260505032538 | 67 | 203 | 7.0 | 10.4 | 0.00 | 0.02 | 0.02 | 64 | 1007.8 |
| 20260505032038 | 67 | 211 | 7.8 | 12.2 | 0.00 | 0.02 | 0.02 | 64 | 1007.8 |
| 20260505031544 | 67 | 229 | 7.8 | 12.2 | 0.00 | 0.02 | 0.02 | 63 | 1007.9 |
| 20260505031037 | 67 | 218 | 7.0 | 10.4 | 0.00 | 0.02 | 0.02 | 63 | 1007.7 |
| 20260505030537 | 67 | 211 | 7.8 | 10.4 | 0.00 | 0.02 | 0.02 | 63 | 1007.8 |
| 20260505030040 | 67 | 211 | 6.1 | 9.6 | 0.00 | 0.02 | 0.02 | 63 | 1007.7 |
| 20260505025536 | 67 | 207 | 6.1 | 8.7 | 0.00 | 0.02 | 0.02 | 63 | 1007.7 |
| 20260505025036 | 67 | 202 | 4.3 | 7.8 | 0.00 | 0.02 | 0.02 | 63 | 1007.5 |
| 20260505024536 | 67 | 216 | 5.2 | 8.7 | 0.00 | 0.02 | 0.02 | 63 | 1007.5 |
| 20260505024036 | 67 | 212 | 5.2 | 11.3 | 0.00 | 0.02 | 0.02 | 63 | 1007.3 |
| 20260505023537 | 67 | 217 | 7.8 | 11.3 | 0.00 | 0.02 | 0.02 | 63 | 1007.2 |
| 20260505023042 | 67 | 204 | 6.1 | 9.6 | 0.00 | 0.02 | 0.02 | 62 | 1007.2 |
| 20260505022535 | 67 | 202 | 6.1 | 8.7 | 0.00 | 0.02 | 0.02 | 62 | 1007.2 |
| 20260505022035 | 67 | 198 | 6.1 | 8.7 | 0.00 | 0.02 | 0.02 | 62 | 1007.0 |
| 20260505021540 | 68 | 220 | 5.2 | 8.7 | 0.00 | 0.02 | 0.02 | 62 | 1007.0 |
| 20260505021035 | 68 | 208 | 7.0 | 9.6 | 0.00 | 0.02 | 0.02 | 62 | 1007.1 |
| 20260505020534 | 68 | 211 | 6.1 | 10.4 | 0.00 | 0.02 | 0.02 | 62 | 1007.0 |
| 20260505020036 | 68 | 221 | 5.2 | 10.4 | 0.00 | 0.02 | 0.02 | 62 | 1007.0 |
| 20260505015533 | 68 | 218 | 6.1 | 8.7 | 0.00 | 0.03 | 0.02 | 62 | 1006.9 |
| 20260505015033 | 68 | 211 | 6.1 | 9.6 | 0.00 | 0.03 | 0.02 | 62 | 1006.9 |
| 20260505014540 | 68 | 204 | 6.1 | 9.6 | 0.00 | 0.03 | 0.02 | 62 | 1006.9 |
| 20260505014033 | 68 | 206 | 5.2 | 7.8 | 0.00 | 0.03 | 0.02 | 61 | 1006.9 |
| 20260505013532 | 69 | 198 | 4.3 | 8.7 | 0.00 | 0.03 | 0.02 | 61 | 1006.9 |
| 20260505013034 | 69 | 200 | 4.3 | 8.7 | 0.00 | 0.03 | 0.02 | 61 | 1006.9 |
| 20260505012531 | 69 | 207 | 4.3 | 7.8 | 0.00 | 0.03 | 0.02 | 60 | 1006.8 |
| 20260505012031 | 69 | 202 | 4.3 | 7.8 | 0.00 | 0.03 | 0.02 | 59 | 1006.9 |
| 20260505011533 | 70 | 198 | 6.1 | 9.6 | 0.00 | 0.03 | 0.02 | 59 | 1006.9 |
| 20260505011030 | 70 | 199 | 5.2 | 9.6 | 0.00 | 0.03 | 0.02 | 59 | 1006.9 |
| 20260505010532 | 70 | 210 | 6.1 | 8.7 | 0.00 | 0.03 | 0.02 | 58 | 1006.9 |
| 20260505010029 | 70 | 217 | 6.1 | 9.6 | 0.00 | 0.03 | 0.02 | 58 | 1006.9 |
| 20260505005529 | 71 | 223 | 6.1 | 9.6 | 0.00 | 0.03 | 0.02 | 58 | 1006.9 |
| 20260505005030 | 71 | 213 | 6.1 | 8.7 | 0.00 | 0.03 | 0.02 | 57 | 1006.8 |
| 20260505004536 | 71 | 223 | 5.2 | 9.6 | 0.00 | 0.03 | 0.02 | 57 | 1006.9 |
| 20260505004028 | 71 | 234 | 5.2 | 11.3 | 0.00 | 0.03 | 0.02 | 57 | 1006.9 |
| 20260505003528 | 71 | 222 | 7.0 | 11.3 | 0.00 | 0.03 | 0.02 | 56 | 1006.9 |
| 20260505003027 | 71 | 217 | 6.1 | 11.3 | 0.00 | 0.03 | 0.02 | 56 | 1006.8 |
| 20260505002528 | 72 | 223 | 7.8 | 11.3 | 0.00 | 0.03 | 0.02 | 56 | 1006.8 |
| 20260505002029 | 72 | 196 | 6.1 | 14.8 | 0.00 | 0.03 | 0.02 | 56 | 1006.8 |
| 20260505001634 | 72 | 200 | 7.0 | 14.8 | 0.00 | 0.03 | 0.02 | 55 | 1006.8 |
| 20260505001026 | 72 | 223 | 8.7 | 13.9 | 0.00 | 0.03 | 0.02 | 55 | 1006.7 |
| 20260505000526 | 72 | 211 | 7.0 | 13.9 | 0.00 | 0.03 | 0.02 | 54 | 1006.8 |
| 20260505000030 | 73 | 229 | 6.1 | 9.6 | 0.00 | 0.03 | 0.02 | 54 | 1007.0 |
| 20260504235525 | 73 | 215 | 6.1 | 9.6 | 0.00 | 0.03 | 0.02 | 54 | 1007.0 |
| 20260504235026 | 73 | 216 | 5.2 | 11.3 | 0.00 | 0.03 | 0.02 | 54 | 1007.0 |
| 20260504234524 | 74 | 224 | 5.2 | 14.8 | 0.00 | 0.03 | 0.02 | 53 | 1007.1 |
| 20260504234023 | 74 | 189 | 9.6 | 15.6 | 0.00 | 0.03 | 0.02 | 53 | 1007.2 |
| 20260504233523 | 74 | 205 | 6.1 | 13.0 | 0.00 | 0.03 | 0.02 | 53 | 1007.1 |
| 20260504233023 | 74 | 208 | 7.0 | 11.3 | 0.00 | 0.03 | 0.02 | 53 | 1007.2 |
| 20260504232523 | 75 | 231 | 7.8 | 12.2 | 0.00 | 0.03 | 0.02 | 52 | 1007.3 |
| 20260504232023 | 75 | 231 | 7.0 | 11.3 | 0.00 | 0.03 | 0.02 | 52 | 1007.3 |
| 20260504231524 | 74 | 234 | 6.1 | 12.2 | 0.00 | 0.03 | 0.02 | 52 | 1007.3 |
| 20260504231021 | 74 | 217 | 8.7 | 14.8 | 0.00 | 0.03 | 0.02 | 53 | 1007.3 |
| 20260504230521 | 74 | 203 | 8.7 | 13.9 | 0.00 | 0.03 | 0.02 | 52 | 1007.3 |
| 20260504230122 | 74 | 202 | 5.2 | 15.6 | 0.00 | 0.03 | 0.02 | 52 | 1007.5 |
| 20260504225520 | 75 | 207 | 7.8 | 15.6 | 0.00 | 0.03 | 0.02 | 50 | 1007.7 |
| 20260504225019 | 75 | 240 | 7.0 | 13.0 | 0.00 | 0.03 | 0.02 | 51 | 1007.6 |
| 20260504224518 | 75 | 200 | 9.6 | 13.0 | 0.00 | 0.03 | 0.02 | 51 | 1007.7 |
| 20260504224019 | 75 | 233 | 6.1 | 17.4 | 0.00 | 0.03 | 0.02 | 52 | 1007.7 |
| 20260504223518 | 75 | 221 | 8.7 | 16.5 | 0.00 | 0.03 | 0.02 | 50 | 1007.7 |
| 20260504223018 | 75 | 229 | 7.8 | 15.6 | 0.00 | 0.03 | 0.02 | 51 | 1007.8 |
| 20260504222518 | 75 | 243 | 8.7 | 15.6 | 0.00 | 0.03 | 0.02 | 51 | 1007.8 |
| 20260504222019 | 75 | 247 | 8.7 | 18.2 | 0.00 | 0.03 | 0.02 | 50 | 1007.8 |
| 20260504221521 | 75 | 232 | 8.7 | 17.4 | 0.00 | 0.03 | 0.02 | 50 | 1007.8 |
| 20260504221017 | 76 | 215 | 11.3 | 17.4 | 0.00 | 0.03 | 0.02 | 49 | 1007.7 |
| 20260504220517 | 76 | 248 | 7.0 | 19.1 | 0.00 | 0.03 | 0.02 | 52 | 1007.9 |
| 20260504220015 | 76 | 205 | 10.4 | 17.4 | 0.00 | 0.03 | 0.02 | 51 | 1007.7 |
| 20260504215515 | 76 | 225 | 6.1 | 17.4 | 0.00 | 0.03 | 0.02 | 53 | 1007.8 |
| 20260504215017 | 75 | 227 | 7.8 | 17.4 | 0.00 | 0.03 | 0.02 | 55 | 1007.7 |
| 20260504214515 | 75 | 254 | 7.8 | 19.1 | 0.00 | 0.03 | 0.02 | 54 | 1008.0 |
| 20260504214014 | 75 | 223 | 9.6 | 19.1 | 0.00 | 0.03 | 0.02 | 53 | 1008.0 |
| 20260504213514 | 76 | 222 | 7.8 | 16.5 | 0.00 | 0.03 | 0.02 | 54 | 1007.9 |
| 20260504213035 | 75 | 188 | 7.8 | 18.2 | 0.00 | 0.03 | 0.02 | 54 | 1007.8 |
| 20260504212516 | 75 | 219 | 8.7 | 18.2 | 0.00 | 0.03 | 0.02 | 54 | 1007.8 |
| 20260504212015 | 75 | 207 | 10.4 | 17.4 | 0.00 | 0.03 | 0.02 | 54 | 1007.8 |
| 20260504211517 | 76 | 221 | 5.2 | 14.8 | 0.00 | 0.03 | 0.02 | 57 | 1007.8 |
| 20260504211016 | 76 | 229 | 7.0 | 14.8 | 0.00 | 0.03 | 0.02 | 56 | 1007.8 |
| 20260504210512 | 76 | 246 | 6.1 | 13.9 | 0.00 | 0.03 | 0.02 | 57 | 1007.9 |
| 20260504210014 | 75 | 228 | 7.8 | 13.0 | 0.00 | 0.03 | 0.02 | 56 | 1007.9 |
| 20260504205511 | 75 | 202 | 7.0 | 20.0 | 0.00 | 0.03 | 0.02 | 56 | 1008.0 |
| 20260504205010 | 75 | 238 | 9.6 | 16.5 | 0.00 | 0.03 | 0.02 | 57 | 1008.1 |
| 20260504204511 | 75 | 207 | 7.0 | 15.6 | 0.00 | 0.03 | 0.02 | 56 | 1008.1 |
| 20260504204010 | 75 | 199 | 7.8 | 15.6 | 0.00 | 0.03 | 0.02 | 56 | 1008.1 |
| 20260504203513 | 75 | 273 | 6.1 | 13.9 | 0.00 | 0.03 | 0.02 | 55 | 1008.2 |
| 20260504203010 | 76 | 275 | 8.7 | 16.5 | 0.00 | 0.03 | 0.02 | 54 | 1008.4 |
| 20260504202508 | 76 | 273 | 4.3 | 14.8 | 0.00 | 0.03 | 0.02 | 56 | 1008.3 |
| 20260504202008 | 76 | 267 | 7.8 | 14.8 | 0.00 | 0.03 | 0.02 | 55 | 1008.4 |
| 20260504201512 | 76 | 261 | 7.0 | 14.8 | 0.00 | 0.03 | 0.02 | 57 | 1008.6 |
| 20260504201008 | 76 | 226 | 10.4 | 16.5 | 0.00 | 0.03 | 0.02 | 55 | 1008.7 |
| 20260504200504 | 75 | 269 | 7.8 | 13.0 | 0.00 | 0.03 | 0.02 | 57 | 1009.0 |
| 20260504200003 | 75 | 287 | 8.7 | 14.8 | 0.00 | 0.03 | 0.02 | 55 | 1008.9 |
| 20260504195502 | 75 | 216 | 7.8 | 16.5 | 0.00 | 0.03 | 0.02 | 57 | 1009.2 |
| 20260504195100 | 74 | 223 | 8.7 | 16.5 | 0.00 | 0.03 | 0.02 | 58 | 1009.3 |
| 20260504194608 | 74 | 247 | 7.8 | 14.8 | 0.00 | 0.03 | 0.02 | 58 | 1009.4 |
| 20260504194059 | 73 | 256 | 6.1 | 15.6 | 0.00 | 0.03 | 0.02 | 59 | 1009.4 |
| 20260504193558 | 73 | 213 | 5.2 | 14.8 | 0.00 | 0.03 | 0.02 | 59 | 1009.4 |
| 20260504193110 | 73 | 259 | 7.8 | 14.8 | 0.00 | 0.03 | 0.02 | 59 | 1009.7 |
| 20260504192556 | 73 | 274 | 6.1 | 16.5 | 0.00 | 0.03 | 0.02 | 59 | 1009.7 |
| 20260504192056 | 73 | 223 | 9.6 | 15.6 | 0.00 | 0.03 | 0.02 | 60 | 1009.7 |
| 20260504191556 | 73 | 194 | 8.7 | 14.8 | 0.00 | 0.03 | 0.02 | 60 | 1009.7 |
| 20260504191056 | 73 | 261 | 5.2 | 15.6 | 0.00 | 0.03 | 0.02 | 60 | 1009.7 |
| 20260504190559 | 73 | 234 | 7.0 | 15.6 | 0.00 | 0.03 | 0.02 | 59 | 1009.6 |
| 20260504190114 | 73 | 253 | 8.7 | 15.6 | 0.00 | 0.03 | 0.02 | 59 | 1009.6 |
| 20260504185554 | 72 | 267 | 10.4 | 17.4 | 0.00 | 0.03 | 0.02 | 59 | 1009.5 |
| 20260504185054 | 72 | 215 | 10.4 | 17.4 | 0.00 | 0.03 | 0.02 | 59 | 1009.5 |
| 20260504184600 | 72 | 205 | 7.8 | 16.5 | 0.00 | 0.03 | 0.02 | 59 | 1009.6 |
| 20260504184052 | 72 | 192 | 8.7 | 18.2 | 0.00 | 0.03 | 0.02 | 62 | 1009.5 |
| 20260504183556 | 72 | 230 | 11.3 | 19.1 | 0.00 | 0.03 | 0.02 | 62 | 1009.6 |
| 20260504183050 | 71 | 242 | 10.4 | 19.1 | 0.00 | 0.03 | 0.02 | 61 | 1009.5 |
| 20260504182555 | 71 | 208 | 9.6 | 16.5 | 0.00 | 0.03 | 0.02 | 65 | 1009.6 |
| 20260504182049 | 70 | 214 | 7.8 | 17.4 | 0.00 | 0.03 | 0.02 | 66 | 1009.6 |
| 20260504181546 | 69 | 196 | 11.3 | 17.4 | 0.00 | 0.03 | 0.02 | 65 | 1009.7 |
| 20260504181047 | 69 | 225 | 7.0 | 14.8 | 0.00 | 0.03 | 0.02 | 67 | 1009.8 |
| 20260504180546 | 68 | 247 | 7.8 | 17.4 | 0.00 | 0.03 | 0.02 | 68 | 1009.8 |
| 20260504180044 | 68 | 226 | 12.2 | 19.1 | 0.00 | 0.03 | 0.02 | 66 | 1009.9 |
| 20260504175541 | 67 | 217 | 12.2 | 19.1 | 0.00 | 0.03 | 0.02 | 68 | 1009.8 |
| 20260504175043 | 67 | 229 | 8.7 | 13.9 | 0.00 | 0.03 | 0.02 | 70 | 1009.7 |
| 20260504174538 | 66 | 205 | 7.8 | 13.0 | 0.00 | 0.03 | 0.02 | 70 | 1009.7 |
| 20260504174039 | 65 | 204 | 6.1 | 11.3 | 0.00 | 0.03 | 0.02 | 74 | 1009.9 |
| 20260504173539 | 64 | 211 | 6.1 | 11.3 | 0.00 | 0.03 | 0.02 | 74 | 1009.9 |
| 20260504173046 | 63 | 198 | 7.0 | 9.6 | 0.00 | 0.03 | 0.02 | 75 | 1010.0 |
| 20260504172537 | 62 | 196 | 6.1 | 13.9 | 0.00 | 0.03 | 0.02 | 76 | 1010.1 |
| 20260504172037 | 62 | 209 | 7.0 | 13.0 | 0.00 | 0.03 | 0.02 | 77 | 1010.0 |
| 20260504171537 | 61 | 212 | 7.8 | 13.0 | 0.00 | 0.03 | 0.02 | 78 | 1009.8 |
| 20260504171036 | 60 | 204 | 8.7 | 15.6 | 0.00 | 0.03 | 0.02 | 80 | 1009.9 |
| 20260504170537 | 60 | 216 | 8.7 | 15.6 | 0.00 | 0.03 | 0.02 | 80 | 1009.9 |
| 20260504151020 | 60 | 209 | 5.2 | 9.6 | 0.00 | 0.03 | 0.02 | 72 | 1010.2 |
| 20260504150521 | 60 | 175 | 5.2 | 9.6 | 0.00 | 0.03 | 0.02 | 73 | 1010.2 |
| 20260504141011 | 58 | 242 | 7.0 | 16.5 | 0.00 | 0.03 | 0.02 | 76 | 1010.7 |
| 20260504140508 | 57 | 186 | 8.7 | 18.2 | 0.00 | 0.03 | 0.02 | 76 | 1010.7 |
| 20260504130555 | 53 | 207 | 9.6 | 16.5 | 0.00 | 0.03 | 0.02 | 82 | 1011.9 |
| 20260504110538 | 52 | 206 | 6.1 | 13.0 | 0.00 | 0.01 | 0.00 | 75 | 1011.7 |
| 20260504100531 | 51 | 211 | 7.0 | 11.3 | 0.00 | 0.01 | 0.00 | 72 | 1011.7 |
| 20260504081510 | 51 | 203 | 7.0 | 9.6 | 0.00 | 0.01 | 0.00 | 67 | 1012.4 |
| 20260504081011 | 51 | 215 | 7.0 | 9.6 | 0.00 | 0.01 | 0.00 | 67 | 1012.5 |
| 20260504080510 | 52 | 194 | 5.2 | 7.8 | 0.00 | 0.01 | 0.00 | 67 | 1012.6 |
| 20260504050543 | 53 | 202 | 6.1 | 12.2 | 0.00 | 0.01 | 0.00 | 59 | 1014.1 |
| 20260504045542 | 54 | 194 | 6.1 | 10.4 | 0.00 | 0.01 | 0.00 | 59 | 1014.1 |
| 20260504045039 | 54 | 208 | 6.1 | 10.4 | 0.00 | 0.01 | 0.00 | 59 | 1014.2 |
| 20260504044554 | 54 | 210 | 6.1 | 9.6 | 0.00 | 0.01 | 0.00 | 59 | 1014.2 |
| 20260504044037 | 54 | 212 | 7.0 | 11.3 | 0.00 | 0.01 | 0.00 | 58 | 1014.2 |
| 20260504043536 | 55 | 205 | 7.8 | 11.3 | 0.00 | 0.01 | 0.00 | 58 | 1014.2 |
| 20260504043036 | 55 | 228 | 6.1 | 11.3 | 0.00 | 0.01 | 0.00 | 58 | 1014.2 |
| 20260504042534 | 55 | 209 | 6.1 | 11.3 | 0.00 | 0.01 | 0.00 | 57 | 1014.2 |
| 20260504042034 | 55 | 211 | 6.1 | 10.4 | 0.00 | 0.01 | 0.00 | 57 | 1014.2 |